Location: Fauquembergues
(50.6005°N, 2.0987°E)
Time: 04:36:14
(UTC+00:00)

Cosmos 1869 Rocket - Pass Details

Date: 14 July 2020
Orbit: 605 x 632 km, 82.5° (Epoch: 06 August)

Event Time Altitude Azimuth Distance (km) Brightness Sun altitude
Exits shadow 02:04:43 19° 213° (SSW) 1,452 4.8 -12.5°
Maximum altitude 02:07:37 52° 284° (WNW) 758 3.9 -12.3°
Drops below altitude 10° 02:11:53 10° 2° (N) 1,975 7.1 -11.9°
Sets 02:14:11 0° 7° (N) 2,888 8.3 -11.7°
